DECAYED

OBJECT A, 53884 (Decayed)

Orbit data source: Space-Track

You're viewing an Uncataloged Satellite

Recently launched and/or uncataloged satellites may have evolving metadata. Metadata may include but not limited to: Owner, Maufacturer, Bus, Motor, and Mission.

OBJECT A, 53884 was a satellite owned by SAST (CN) in LEO that was launched on Sat, 24 Sep 2022 UTC via a KUAIZHOU-1A launch vehicle from the Taiyaun Space Center, China (TSC). Unknown objects in Earth's orbit typically refer to objects detected orbiting the Earth but have not yet been identified or cataloged. These objects could be anything from previously untracked satellites, spent rocket stages, debris from satellite collisions, or even natural meteoroids temporarily captured by Earth's gravity. This object's orbit decayed before it could be identified.

Loading next visibility...
Identifier
53884, 2022-118A
Orbit
Decayed
Country
Flag of CNCN / PRC
Related business
Manufacturer
SAST
Mission
Decayed Defense Technology
Bus & Motor
Unknown
Mass
~100 kg wet, 100 kg dry
Launch date (UTC)
2022-09-24 (4 years ago)
Launch vehicle
KUAIZHOU-1A
Launch site
Taiyaun Space Center, China (TSC)
Object type
Unknown
Shape & HBR
Box + 2 Pan, 1.0 m
Radar Cross Section
0.833 m², Medium (>0.1 m² and < 1m²)

Expand to show TLE details & history
Last TLE update: 1 year ago

TLE from 1 year ago
0 OBJECT A
1 53884U 22118A   25110.97996565  .14766799  26455-5  47890-3 0  9994
2 53884  97.3893 150.7930 0010557 217.1002 142.9570 16.43913728144208
Epoch: 2025-04-20T23:31Z
TLE epoch observation values (Epoch: 2025-04-20T23:31:09.032Z)
Latitude
-0.00009°
Longitude
-51.29565°
Altitude
164.178 km
Speed
7.804 km/s
True Right ascension
10h 03m 10s
True Declination
0° 00' 00"
Sunlit
Object was in full shadow at epoch
Visualization orbit readout
Latitude
Unknown
Longitude
Unknown
Altitude
Unknown
Speed
Unknown
Apparent Right ascension
Unknown
Apparent Declination
Unknown
Sunlit
N/A
Visualization observer readout
Local Sidereal Time
21:28:15
Azimuth
Unknown
Elevation
Unknown
Doppler factor
Unknown
Orbital elements
Apogee altitude
159.108 km
Perigee altitude
145.32 km
Semi-major axis
6,530.351 km
Eccentricity
0.00106
Inclination
97.3893°
RAAN
150.793°
Arg. of periapsis
217.1002°
True anomaly
143.0298°
Mean anomaly
142.957°
Eccentric anomaly
142.99341°
Mean motion
4.11281 °/min
Orbital period
87.53 mins
BSTAR
0.0004789
Loading maneuver chart data...
Computing Atmospheric mass density...
Loading historical data...
Loading historical data...
Loading historical data...
Loading historical data...
Loading historical data...
Loading historical data...
Loading historical data...
Other satellites on launch #118 in the year 2022 (2022-09-24 UTC)

Documentation

Showing up to 5 results
|